Location: Bühlhof
(48.7849°N, 8.6361°E)
Time: 00:09:36
(UTC+00:00)

Cosmos 1484 Rocket - Pass Details

Date: 19 January 2026
Orbit: 439 x 466 km, 97.6° (Epoch: 17 February)

Event Time Altitude Azimuth Distance (km) Brightness Sun altitude
Rises 16:40:47 0° 179° (S) 2,416 6.4 -6.4°
Reaches altitude 10° 16:42:51 10° 185° (S) 1,551 5.5 -6.7°
Maximum altitude 16:46:03 45° 260° (W) 607 3.7 -7.2°
Drops below altitude 10° 16:49:17 10° 335° (NNW) 1,565 5.2 -7.7°
Sets 16:51:22 0° 342° (NNW) 2,442 6.1 -8.0°
